Hebron, NE

3:38 PM CDT on April 20, 2018 (GMT -0500)
Hebron Municipal

Weather History for KHJH - November, 2013

Change the Weather History Date:

Saturday, November 16, 2013

  Actual Average Record
Temperature  
Mean Temperature 53 °F -  
Max Temperature 67 °F 51 °F 81 °F (2016)
Min Temperature 39 °F 27 °F 2 °F (1955)
Degree Days  
Heating Degree Days 12    
Growing Degree Days 3 (Base 50)    
Moisture  
Dew Point 33 °F    
Average Humidity 54    
Maximum Humidity 81    
Minimum Humidity 12    
Precipitation  
Precipitation 0.00 in - - ()
Sea Level Pressure  
Sea Level Pressure 29.40 in    
Wind  
Wind Speed 10 mph (SW)    
Max Wind Speed 17 mph    
Max Gust Speed 25 mph    
Visibility 10 miles    
Events      
Averages and records for this station are not official NWS values.
T = Trace of Precipitation, MM = Missing Value Source: NWS Daily Summary

Daily Weather History Graph

Daily Weather History Graph

Search for Another Location

Airport or City:

Astronomy

Nov. 16, 2013 Rise Set
Actual Time 7:17 AM CST 5:12 PM CST
Civil Twilight 6:48 AM CST 5:41 PM CST
Nautical Twilight 6:15 AM CST 6:14 PM CST
Astronomical Twilight 5:43 AM CST 6:46 PM CST
Moon 4:48 PM CST (11/16) 6:14 AM CST (11/16)
Length of Visible Light 10h 53m
Length of Day
9h 55m
Waxing Gibbous, 99% of the Moon is Illuminated
Nov 16
Waxing Gibbous
Nov 17
Full
Nov 25
Last Quarter
Dec 2
New
Dec 9
First Quarter

Hourly Weather History & Observations

Time (CST) Temp. Dew Point Humidity Pressure Visibility Wind Dir Wind Speed Gust Speed Precip Events Conditions
12:15 AM 49.1 °F 43.0 °F 79% 29.54 in 10.0 mi South 11.5 mph 17.3 mph N/A   Clear
12:35 AM 49.1 °F 43.0 °F 79% 29.54 in 10.0 mi South 9.2 mph 17.3 mph N/A   Clear
12:55 AM 48.7 °F 43.0 °F 80% 29.53 in 10.0 mi South 12.7 mph - N/A   Clear
1:15 AM 48.7 °F 43.0 °F 80% 29.51 in 10.0 mi South 9.2 mph - N/A   Clear
1:35 AM 48.9 °F 43.3 °F 81% 29.49 in 10.0 mi South 11.5 mph - N/A   Clear
1:55 AM 50.0 °F 43.7 °F 79% 29.48 in 10.0 mi South 11.5 mph - N/A   Clear
2:15 AM 50.4 °F 43.9 °F 78% 29.47 in 10.0 mi South 13.8 mph - N/A   Clear
2:35 AM 50.7 °F 43.9 °F 77% 29.46 in 10.0 mi South 13.8 mph 18.4 mph N/A   Clear
2:55 AM 50.9 °F 44.1 °F 77% 29.45 in 10.0 mi South 16.1 mph - N/A   Clear
3:15 AM 50.9 °F 44.1 °F 77% 29.44 in 10.0 mi South 15.0 mph 20.7 mph N/A   Clear
3:35 AM 50.5 °F 44.1 °F 78% 29.43 in 10.0 mi South 15.0 mph - N/A   Clear
3:55 AM 50.4 °F 43.9 °F 78% 29.42 in 10.0 mi South 12.7 mph - N/A   Clear
4:15 AM 50.9 °F 44.2 °F 78% 29.40 in 10.0 mi South 13.8 mph 19.6 mph N/A   Clear
4:35 AM 51.8 °F 44.6 °F 76% 29.39 in 10.0 mi South 15.0 mph - N/A   Clear
4:55 AM 52.0 °F 44.8 °F 76% 29.38 in 10.0 mi South 16.1 mph 20.7 mph N/A   Clear
5:15 AM 52.5 °F 45.1 °F 76% 29.38 in 10.0 mi South 16.1 mph 21.9 mph N/A   Clear
5:35 AM 52.7 °F 45.5 °F 76% 29.37 in 10.0 mi South 17.3 mph 21.9 mph N/A   Clear
5:55 AM 52.7 °F 45.7 °F 77% 29.37 in 10.0 mi South 17.3 mph 23.0 mph N/A   Clear
6:15 AM 52.7 °F 45.9 °F 78% 29.36 in 10.0 mi South 13.8 mph 19.6 mph N/A   Clear
6:35 AM 52.3 °F 45.9 °F 79% 29.36 in 10.0 mi South 12.7 mph 20.7 mph N/A   Clear
6:55 AM 52.7 °F 46.0 °F 78% 29.35 in 10.0 mi South 15.0 mph 20.7 mph N/A   Clear
7:15 AM 53.2 °F 46.0 °F 77% 29.35 in 10.0 mi South 17.3 mph 23.0 mph N/A   Clear
7:35 AM 53.8 °F 46.4 °F 76% 29.35 in 10.0 mi SSW 17.3 mph 25.3 mph N/A   Clear
7:55 AM 54.7 °F 46.4 °F 74% 29.35 in 10.0 mi SSW 16.1 mph 21.9 mph N/A   Clear
8:15 AM 56.1 °F 46.4 °F 70% 29.36 in 10.0 mi SSW 16.1 mph 25.3 mph N/A   Clear
8:35 AM 57.2 °F 45.9 °F 66% 29.37 in 10.0 mi SW 15.0 mph 20.7 mph N/A   Scattered Clouds
8:55 AM 56.3 °F 45.5 °F 67% 29.38 in 10.0 mi SW 13.8 mph 21.9 mph N/A   Clear
9:15 AM 56.5 °F 44.2 °F 64% 29.38 in 10.0 mi WSW 12.7 mph 18.4 mph N/A   Clear
9:35 AM 56.1 °F 42.3 °F 60% 29.38 in 10.0 mi WSW 15.0 mph 20.7 mph N/A   Clear
9:55 AM 55.4 °F 40.3 °F 57% 29.38 in 10.0 mi WSW 12.7 mph 21.9 mph N/A   Clear
10:15 AM 56.8 °F 39.6 °F 52% 29.39 in 10.0 mi WSW 15.0 mph 21.9 mph N/A   Clear
10:35 AM 58.5 °F 37.2 °F 45% 29.40 in 10.0 mi SW 13.8 mph - N/A   Clear
10:55 AM 59.2 °F 36.7 °F 43% 29.41 in 10.0 mi WSW 11.5 mph - N/A   Clear
11:15 AM 59.5 °F 34.3 °F 39% 29.41 in 10.0 mi West 13.8 mph 17.3 mph N/A   Clear
11:35 AM 60.6 °F 32.0 °F 34% 29.40 in 10.0 mi WSW 9.2 mph - N/A   Clear
11:55 AM 61.7 °F 29.5 °F 30% 29.40 in 10.0 mi West 8.1 mph - N/A   Clear
12:15 PM 63.5 °F 27.0 °F 25% 29.40 in 10.0 mi West 12.7 mph - N/A   Clear
12:35 PM 64.0 °F 25.0 °F 23% 29.38 in 10.0 mi West 6.9 mph - N/A   Clear
12:55 PM 64.8 °F 25.5 °F 23% 29.38 in 10.0 mi WSW 6.9 mph - N/A   Clear
1:15 PM 66.4 °F 19.2 °F 16% 29.38 in 10.0 mi West 9.2 mph - N/A   Clear
1:35 PM 67.1 °F 14.5 °F 13% 29.38 in 10.0 mi West 12.7 mph - N/A   Clear
1:55 PM 66.6 °F 15.3 °F 14% 29.38 in 10.0 mi West 9.2 mph 18.4 mph N/A   Clear
2:15 PM 67.1 °F 14.5 °F 13% 29.38 in 10.0 mi West 10.4 mph - N/A   Clear
2:35 PM 67.1 °F 15.1 °F 13% 29.38 in 10.0 mi WNW 8.1 mph - N/A   Clear
2:55 PM 67.1 °F 14.9 °F 13% 29.39 in 10.0 mi West 5.8 mph - N/A   Clear
3:15 PM 67.1 °F 12.4 °F 12% 29.39 in 10.0 mi West 5.8 mph - N/A   Clear
3:35 PM 66.7 °F 12.2 °F 12% 29.39 in 10.0 mi WSW 6.9 mph - N/A   Clear
3:55 PM 66.2 °F 12.7 °F 13% 29.40 in 10.0 mi West 5.8 mph - N/A   Clear
4:15 PM 65.3 °F 15.1 °F 14% 29.41 in 10.0 mi WSW 3.5 mph - N/A   Clear
4:35 PM 64.2 °F 16.7 °F 16% 29.41 in 10.0 mi Calm Calm - N/A   Clear
4:55 PM 60.8 °F 20.3 °F 21% 29.41 in 10.0 mi Calm Calm - N/A   Clear
5:15 PM 53.4 °F 25.7 °F 34% 29.41 in 10.0 mi Calm Calm - N/A   Clear
5:35 PM 49.1 °F 26.2 °F 41% 29.41 in 10.0 mi Calm Calm - N/A   Clear
5:55 PM 50.2 °F 24.1 °F 36% 29.40 in 10.0 mi Calm Calm - N/A   Clear
6:15 PM 48.9 °F 23.4 °F 37% 29.40 in 10.0 mi Calm Calm - N/A   Clear
6:35 PM 45.7 °F 26.4 °F 47% 29.40 in 10.0 mi Calm Calm - N/A   Clear
6:55 PM 45.1 °F 25.7 °F 47% 29.40 in 10.0 mi Calm Calm - N/A   Clear
7:15 PM 44.2 °F 26.4 °F 50% 29.41 in 10.0 mi Calm Calm - N/A   Clear
7:35 PM 43.9 °F 27.5 °F 53% 29.40 in 10.0 mi Calm Calm - N/A   Clear
7:55 PM 43.7 °F 27.3 °F 53% 29.40 in 10.0 mi Calm Calm - N/A   Clear
8:15 PM 42.8 °F 28.4 °F 57% 29.40 in 10.0 mi Calm Calm - N/A   Clear
8:35 PM 41.9 °F 30.0 °F 63% 29.39 in 10.0 mi Calm Calm - N/A   Clear
8:55 PM 41.4 °F 30.7 °F 66% 29.39 in 10.0 mi Calm Calm - N/A   Clear
9:15 PM 43.3 °F 29.3 °F 58% 29.39 in 10.0 mi Calm Calm - N/A   Clear
9:35 PM 42.8 °F 31.1 °F 63% 29.37 in 10.0 mi Calm Calm - N/A   Clear
9:55 PM 41.7 °F 29.7 °F 62% 29.38 in 10.0 mi Calm Calm - N/A   Clear
10:15 PM 40.5 °F 28.8 °F 63% 29.37 in 10.0 mi Calm Calm - N/A   Clear
10:35 PM 39.9 °F 27.9 °F 62% 29.36 in 10.0 mi Calm Calm - N/A   Clear
10:55 PM 40.8 °F 28.8 °F 62% 29.35 in 10.0 mi Calm Calm - N/A   Clear
11:15 PM 39.6 °F 31.1 °F 72% 29.34 in 10.0 mi Calm Calm - N/A   Clear
11:35 PM 40.5 °F 30.4 °F 67% 29.32 in 10.0 mi Calm Calm - N/A   Clear
11:55 PM 42.6 °F 29.5 °F 60% 29.32 in 10.0 mi Calm Calm - N/A   Clear